Vertical_Velocity
-1 -1 -1 -0 -0 0 1 0 0 0 1 1 1 1 1 1 1 1 1 1 0 0 -0 -1 -1 -0 -1 -1 -1 -1 -2 -2 -2 -3 -3 -3 -4 -4 -5 -5 -5 -5 -5 -4 -4 -4 -5 -5 -5 -4 -4 -4 -4 -5 -5 -4 -4 -4 -4 -5 -5 -5 -5 -6 -6 -7 -7 -7 -7 -6 -5 -3 -2 -1 0 1 2 2 2 2 2 2 1 1 -0 -1 -2 -3 -6 -8 -9 -7 -5 -2 -1 -0 -0 -1 -2 -3 -3 -3 -3
-0 -0 -0 0 0 1 1 1 1 1 1 1 1 1 1 1 1 1 1 0 0 -0 -0 -1 -1 -1 -2 -2 -2 -2 -3 -3 -3 -4 -3 -4 -4 -5 -5 -5 -5 -5 -6 -5 -4 -4 -4 -4 -4 -4 -4 -4 -4 -4 -5 -4 -4 -3 -3 -4 -4 -4 -4 -5 -6 -6 -7 -8 -8 -8 -7 -7 -6 -4 -3 -2 -1 -0 0 1 1 2 2 1 1 0 -0 -1 -2 -4 -6 -9 -9 -7 -4 -2 -0 -0 -1 -2 -3 -3 -4
0 0 0 0 1 1 1 1 1 1 0 1 1 1 1 1 1 1 1 0 -0 -1 -1 -1 -1 -2 -2 -3 -3 -4 -4 -4 -4 -5 -4 -5 -5 -5 -5 -5 -6 -6 -6 -6 -5 -4 -3 -4 -4 -4 -4 -3 -3 -3 -4 -4 -3 -3 -3 -3 -2 -3 -4 -4 -4 -5 -6 -7 -8 -8 -8 -9 -8 -7 -7 -5 -4 -3 -1 -0 0 1 1 1 1 1 0 -0 -1 -2 -2 -5 -7 -9 -9 -6 -3 -1 -0 -0 -1 -2 -3
0 0 0 0 1 1 1 1 1 1 0 1 1 1 1 1 1 1 0 0 -0 -1 -2 -2 -3 -3 -3 -4 -4 -4 -4 -5 -5 -5 -5 -5 -5 -6 -6 -6 -6 -6 -6 -6 -6 -5 -4 -5 -5 -4 -4 -3 -3 -3 -3 -3 -3 -3 -3 -2 -2 -2 -3 -2 -2 -3 -4 -5 -6 -6 -7 -8 -9 -10 -10 -9 -7 -6 -4 -3 -2 -1 -0 0 1 1 1 1 0 -1 -1 -2 -3 -6 -9 -10 -8 -5 -2 -1 -1 -1 -2
0 0 0 0 0 1 1 1 1 0 0 0 0 0 0 1 1 0 0 -0 -1 -1 -2 -3 -3 -4 -4 -4 -4 -4 -4 -5 -5 -5 -6 -6 -6 -6 -6 -6 -6 -6 -6 -6 -6 -6 -5 -5 -5 -5 -5 -4 -4 -3 -3 -3 -3 -2 -2 -2 -2 -2 -3 -2 -1 -1 -3 -3 -3 -4 -5 -6 -7 -9 -10 -11 -10 -9 -8 -6 -5 -3 -2 -1 -0 0 1 1 1 0 -0 -1 -2 -3 -4 -7 -9 -10 -7 -4 -2 -1 -1
0 0 0 -0 -0 0 1 1 0 0 -0 -0 -0 -0 -0 -0 -0 -0 -1 -1 -1 -2 -3 -3 -4 -4 -4 -4 -4 -4 -4 -4 -4 -5 -5 -5 -6 -6 -6 -6 -6 -6 -6 -6 -6 -6 -6 -6 -5 -5 -5 -4 -4 -3 -3 -3 -3 -3 -2 -2 -2 -2 -2 -1 -1 -1 -2 -2 -2 -2 -3 -3 -4 -5 -7 -9 -10 -11 -10 -10 -8 -7 -5 -4 -2 -2 -1 -0 0 1 1 -0 -1 -2 -2 -3 -5 -8 -11 -9 -6 -2 -0
-0 0 0 -0 -0 -0 0 0 0 -0 -0 -0 -0 -0 -1 -1 -1 -1 -1 -2 -2 -2 -2 -3 -3 -3 -3 -4 -4 -4 -4 -4 -4 -4 -4 -5 -5 -5 -5 -5 -5 -5 -5 -6 -6 -6 -6 -6 -6 -5 -5 -4 -4 -4 -4 -3 -3 -3 -2 -2 -2 -2 -2 -1 -1 -0 -1 -1 -2 -2 -2 -1 -2 -3 -4 -5 -6 -8 -9 -10 -10 -10 -8 -7 -5 -4 -3 -2 -1 -1 -0 1 0 0 -1 -2 -3 -4 -6 -10 -10 -8 -3
-0 -1 -0 -1 -1 -0 0 0 -0 -0 -0 -0 -1 -1 -1 -1 -2 -2 -3 -3 -3 -3 -3 -3 -3 -3 -3 -3 -3 -3 -4 -4 -3 -3 -3 -4 -4 -4 -4 -4 -4 -4 -5 -5 -5 -6 -6 -6 -6 -5 -5 -4 -4 -4 -4 -3 -3 -3 -3 -3 -3 -3 -2 -2 -1 -1 -0 -1 -1 -1 -1 -1 -2 -2 -3 -3 -3 -4 -5 -7 -8 -9 -10 -9 -8 -7 -5 -4 -3 -2 -1 -0 0 0 0 -0 -1 -2 -3 -5 -8 -11 -10
-0 -1 -1 -1 -1 -1 -1 -0 -1 -1 -1 -1 -1 -1 -1 -2 -2 -3 -3 -3 -3 -3 -3 -3 -3 -3 -3 -3 -3 -3 -3 -3 -3 -3 -3 -3 -4 -4 -4 -4 -4 -4 -4 -5 -5 -6 -6 -6 -6 -5 -5 -5 -5 -5 -4 -5 -5 -4 -5 -4 -4 -4 -3 -3 -3 -3 -2 -1 -1 -1 -1 -2 -2 -2 -2 -2 -2 -2 -3 -3 -5 -6 -7 -8 -9 -9 -8 -7 -5 -4 -3 -2 -1 -1 -1 0 -0 -1 -2 -2 -3 -6 -11
-0 -0 -1 -1 -2 -1 -1 -1 -1 -1 -1 -1 -2 -2 -2 -2 -3 -3 -3 -3 -4 -4 -4 -3 -3 -3 -3 -3 -3 -3 -2 -2 -3 -3 -3 -3 -4 -4 -4 -4 -4 -4 -4 -4 -5 -5 -5 -5 -5 -5 -5 -5 -5 -5 -5 -5 -5 -6 -5 -6 -6 -6 -5 -5 -5 -5 -5 -4 -4 -3 -3 -3 -3 -3 -2 -2 -2 -2 -2 -2 -3 -3 -4 -5 -6 -7 -8 -8 -7 -6 -5 -4 -3 -2 -2 -1 -1 -1 -1 -2 -2 -2 -4
-1 -1 -1 -1 -2 -2 -1 -1 -1 -2 -2 -2 -2 -2 -3 -3 -3 -4 -4 -4 -4 -3 -3 -3 -3 -3 -3 -3 -3 -3 -3 -2 -2 -2 -3 -3 -4 -4 -4 -4 -4 -4 -5 -5 -5 -4 -4 -4 -4 -4 -4 -5 -5 -5 -5 -5 -6 -6 -6 -7 -7 -7 -6 -6 -6 -6 -7 -6 -6 -5 -5 -5 -5 -5 -4 -4 -3 -3 -2 -2 -2 -2 -3 -3 -4 -5 -6 -6 -7 -7 -7 -6 -5 -4 -3 -2 -2 -1 -1 -2 -2 -2 -1
-1 -1 -1 -1 -2 -2 -2 -1 -1 -2 -2 -2 -3 -3 -3 -3 -4 -4 -4 -4 -4 -4 -3 -3 -3 -3 -3 -3 -3 -3 -3 -3 -3 -3 -3 -3 -3 -4 -4 -5 -5 -5 -5 -5 -4 -4 -3 -3 -3 -4 -4 -4 -4 -5 -5 -5 -5 -5 -5 -6 -7 -6 -5 -4 -5 -5 -6 -6 -6 -6 -6 -6 -6 -6 -5 -6 -5 -5 -4 -4 -3 -3 -3 -3 -3 -4 -4 -4 -5 -5 -6 -6 -6 -5 -4 -4 -3 -3 -2 -2 -2 -2 -1
-1 -1 -1 -1 -1 -2 -2 -1 -1 -2 -2 -2 -3 -3 -3 -4 -4 -4 -5 -4 -4 -4 -3 -3 -3 -3 -3 -3 -3 -3 -3 -3 -3 -3 -3 -3 -3 -4 -4 -4 -5 -5 -5 -5 -4 -3 -3 -3 -3 -3 -3 -4 -4 -4 -5 -5 -5 -5 -5 -5 -5 -5 -4 -3 -3 -4 -4 -5 -5 -6 -7 -6 -6 -5 -6 -6 -6 -6 -6 -6 -6 -5 -5 -4 -4 -3 -3 -4 -4 -4 -5 -5 -5 -5 -5 -5 -4 -4 -3 -3 -2 -2 -1
-1 -1 -1 -1 -1 -2 -2 -1 -1 -2 -2 -3 -3 -3 -4 -4 -4 -4 -5 -4 -4 -4 -4 -4 -3 -3 -2 -2 -2 -2 -3 -3 -3 -3 -3 -3 -3 -3 -4 -4 -4 -4 -4 -4 -4 -3 -3 -3 -3 -3 -3 -3 -3 -3 -4 -4 -4 -4 -5 -5 -4 -4 -4 -3 -4 -4 -5 -5 -6 -7 -7 -6 -6 -6 -6 -6 -6 -6 -6 -7 -7 -7 -7 -6 -5 -5 -4 -4 -4 -5 -5 -4 -4 -4 -4 -4 -4 -4 -4 -4 -4 -3 -2
-1 -1 -1 -1 -1 -2 -2 -1 -1 -2 -2 -2 -3 -3 -4 -3 -3 -3 -4 -4 -4 -4 -4 -4 -3 -3 -2 -2 -2 -2 -2 -2 -3 -3 -3 -3 -3 -3 -4 -4 -4 -3 -3 -3 -3 -3 -3 -3 -3 -3 -3 -3 -3 -3 -3 -3 -3 -4 -4 -4 -4 -4 -4 -4 -4 -5 -5 -6 -7 -8 -8 -8 -7 -7 -7 -7 -7 -6 -6 -6 -7 -7 -7 -7 -6 -6 -6 -6 -6 -6 -6 -5 -5 -4 -4 -3 -3 -3 -4 -5 -4 -4 -4
-1 -1 -1 -1 -1 -2 -2 -2 -2 -2 -2 -2 -2 -3 -3 -3 -3 -3 -3 -3 -3 -3 -4 -4 -4 -3 -3 -2 -2 -2 -1 -1 -2 -2 -3 -3 -4 -4 -4 -4 -3 -3 -3 -3 -3 -3 -3 -3 -3 -3 -3 -3 -3 -3 -3 -3 -3 -3 -4 -4 -4 -5 -4 -4 -5 -6 -6 -6 -6 -7 -7 -8 -8 -8 -8 -8 -8 -7 -8 -7 -7 -7 -7 -6 -6 -6 -7 -7 -7 -7 -7 -7 -6 -6 -5 -4 -3 -3 -3 -3 -4 -4 -5
-1 -1 -1 -1 -1 -2 -2 -2 -2 -2 -2 -2 -2 -2 -2 -2 -2 -2 -2 -3 -3 -3 -3 -4 -4 -4 -4 -4 -3 -3 -2 -2 -2 -2 -3 -4 -4 -4 -4 -4 -3 -3 -3 -3 -3 -4 -4 -4 -4 -4 -3 -3 -3 -3 -3 -3 -3 -3 -4 -4 -5 -5 -5 -5 -5 -6 -5 -5 -5 -6 -6 -6 -6 -6 -7 -7 -7 -8 -8 -8 -8 -8 -7 -7 -6 -6 -6 -6 -7 -7 -7 -7 -7 -7 -6 -6 -5 -4 -3 -2 -2 -3 -5
-1 -1 -1 -1 -2 -2 -2 -2 -2 -2 -2 -2 -2 -2 -2 -2 -2 -2 -2 -2 -3 -3 -3 -3 -4 -4 -4 -4 -4 -4 -4 -4 -4 -4 -4 -4 -4 -4 -4 -4 -4 -4 -4 -4 -4 -4 -4 -4 -4 -4 -4 -4 -4 -4 -4 -4 -4 -4 -4 -4 -5 -5 -5 -5 -5 -5 -5 -5 -5 -5 -5 -5 -5 -4 -5 -5 -6 -6 -6 -7 -8 -8 -8 -8 -8 -7 -7 -7 -7 -7 -7 -7 -7 -8 -8 -7 -7 -6 -5 -4 -3 -2 -3
-1 -1 -1 -1 -2 -2 -2 -2 -2 -2 -2 -2 -2 -2 -2 -2 -2 -2 -2 -2 -2 -3 -3 -3 -4 -4 -4 -5 -5 -5 -6 -6 -6 -6 -5 -5 -5 -5 -4 -4 -4 -4 -4 -4 -4 -4 -4 -4 -4 -4 -5 -4 -4 -4 -4 -4 -4 -4 -4 -4 -5 -5 -5 -5 -5 -5 -5 -4 -5 -5 -4 -4 -4 -4 -4 -4 -5 -5 -5 -6 -7 -8 -8 -10 -10 -10 -9 -9 -8 -7 -7 -7 -7 -7 -8 -8 -8 -7 -7 -6 -4 -3 -2
-1 -1 -1 -2 -2 -2 -2 -2 -3 -2 -2 -2 -2 -2 -2 -2 -2 -2 -2 -2 -3 -3 -3 -3 -3 -4 -4 -5 -5 -6 -6 -6 -6 -6 -6 -6 -5 -5 -5 -5 -4 -4 -5 -5 -4 -4 -4 -4 -4 -4 -5 -4 -4 -4 -4 -4 -4 -4 -4 -4 -4 -5 -5 -5 -6 -6 -5 -5 -5 -5 -4 -4 -4 -4 -4 -4 -4 -5 -5 -6 -7 -7 -8 -9 -9 -10 -11 -9 -9 -9 -8 -7 -7 -7 -7 -8 -8 -8 -8 -7 -6 -5 -3
-1 -1 -1 -2 -2 -2 -2 -2 -2 -2 -2 -2 -2 -2 -2 -2 -2 -2 -2 -2 -2 -3 -3 -3 -3 -3 -4 -4 -5 -6 -6 -6 -6 -6 -6 -6 -5 -5 -5 -5 -5 -4 -4 -4 -4 -4 -4 -4 -4 -4 -4 -5 -4 -4 -4 -4 -4 -5 -4 -4 -4 -5 -5 -6 -6 -6 -5 -5 -5 -5 -4 -4 -4 -4 -4 -5 -5 -5 -5 -5 -6 -7 -7 -7 -8 -9 -9 -9 -9 -9 -9 -9 -8 -7 -7 -7 -8 -8 -8 -8 -8 -7 -5
-1 -1 -1 -1 -1 -1 -2 -2 -2 -2 -2 -2 -1 -1 -2 -2 -2 -2 -2 -2 -2 -2 -2 -2 -3 -3 -4 -4 -5 -5 -6 -6 -5 -5 -5 -5 -5 -5 -5 -5 -5 -4 -4 -4 -4 -4 -4 -4 -4 -5 -5 -5 -5 -5 -4 -4 -5 -5 -5 -4 -4 -5 -5 -6 -6 -6 -5 -5 -5 -5 -5 -4 -4 -4 -5 -5 -5 -5 -5 -6 -6 -7 -7 -7 -7 -7 -7 -7 -7 -8 -8 -8 -8 -8 -7 -7 -7 -7 -8 -8 -8 -8 -8
-1 -1 -1 -1 -1 -1 -1 -1 -1 -1 -2 -2 -1 -1 -2 -2 -2 -2 -2 -2 -2 -2 -2 -2 -3 -3 -4 -4 -5 -5 -5 -6 -6 -5 -5 -5 -5 -5 -5 -5 -5 -5 -4 -4 -4 -4 -4 -5 -5 -5 -5 -6 -6 -5 -5 -5 -5 -5 -5 -5 -5 -5 -6 -6 -6 -6 -5 -5 -6 -6 -5 -5 -4 -4 -5 -5 -5 -6 -6 -6 -6 -6 -6 -6 -6 -6 -6 -6 -6 -6 -6 -6 -6 -7 -7 -6 -6 -6 -7 -8 -8 -9 -8
-1 -1 -1 -1 -1 -1 -1 -1 -1 -1 -1 -1 -1 -1 -1 -2 -2 -2 -2 -2 -2 -2 -2 -3 -3 -3 -4 -4 -5 -5 -5 -5 -5 -6 -5 -5 -5 -5 -5 -5 -5 -5 -5 -4 -4 -4 -4 -5 -5 -5 -5 -6 -6 -6 -5 -5 -5 -5 -6 -5 -5 -6 -6 -7 -6 -6 -6 -5 -6 -5 -5 -4 -4 -4 -4 -4 -4 -5 -5 -4 -4 -4 -4 -4 -4 -4 -4 -5 -5 -5 -6 -5 -5 -5 -6 -6 -6 -6 -6 -7 -7 -8 -8
-1 -1 -1 -1 -1 -1 -1 -1 -1 -1 -1 -1 -1 -1 -2 -2 -2 -2 -2 -2 -2 -2 -3 -3 -3 -4 -4 -4 -5 -5 -4 -4 -4 -5 -5 -5 -5 -4 -4 -5 -5 -5 -5 -5 -4 -4 -4 -4 -5 -5 -5 -5 -6 -6 -5 -5 -5 -5 -6 -6 -6 -6 -6 -7 -6 -6 -5 -4 -4 -4 -3 -3 -3 -2 -2 -2 -3 -3 -3 -2 -3 -3 -3 -3 -4 -3 -3 -3 -3 -3 -4 -4 -4 -4 -5 -5 -6 -6 -5 -6 -7 -8 -8
-2 -2 -2 -1 -1 -1 -1 -1 -1 -1 -1 -1 -1 -2 -2 -2 -2 -2 -2 -2 -2 -3 -3 -3 -4 -4 -4 -4 -4 -4 -4 -4 -4 -4 -4 -4 -4 -4 -3 -4 -4 -5 -5 -5 -4 -4 -4 -4 -4 -5 -5 -5 -5 -5 -5 -5 -5 -5 -5 -5 -6 -6 -6 -5 -5 -4 -3 -3 -2 -2 -2 -2 -2 -1 -1 -2 -3 -3 -2 -2 -2 -3 -3 -2 -2 -2 -1 -2 -2 -2 -2 -3 -4 -5 -4 -5 -6 -6 -5 -6 -6 -6 -7
-2 -2 -2 -2 -2 -1 -1 -1 -1 -1 -1 -1 -1 -2 -2 -2 -2 -2 -2 -2 -2 -3 -3 -3 -4 -4 -4 -4 -4 -4 -3 -3 -3 -3 -3 -4 -4 -3 -3 -3 -3 -4 -4 -4 -4 -4 -4 -4 -4 -4 -4 -4 -5 -5 -5 -5 -4 -5 -5 -5 -5 -5 -4 -4 -3 -3 -2 -2 -1 -1 -1 -1 -1 -2 -2 -2 -3 -3 -3 -3 -3 -3 -2 -1 -1 -2 -0 -1 -1 -1 -1 -3 -4 -5 -5 -6 -6 -6 -5 -6 -6 -6 -6
-2 -2 -2 -2 -2 -2 -2 -2 -2 -2 -2 -1 -1 -1 -2 -2 -2 -2 -2 -2 -3 -3 -3 -3 -4 -4 -4 -4 -4 -4 -4 -3 -3 -3 -4 -3 -3 -3 -3 -2 -2 -3 -3 -3 -3 -3 -3 -3 -3 -3 -3 -3 -4 -4 -5 -5 -4 -5 -5 -5 -4 -4 -3 -2 -2 -2 -2 -2 -2 -2 -2 -2 -2 -3 -3 -3 -3 -3 -4 -3 -3 -2 -2 -0 -1 -1 -1 -1 -1 -2 -1 -3 -3 -4 -4 -6 -7 -7 -6 -6 -5 -5 -6
-1 -1 -2 -2 -2 -2 -2 -2 -2 -2 -2 -2 -1 -1 -1 -2 -2 -2 -2 -2 -3 -3 -3 -3 -4 -4 -4 -4 -4 -4 -4 -3 -3 -2 -3 -3 -3 -3 -3 -2 -2 -2 -2 -3 -3 -3 -2 -2 -3 -3 -2 -2 -3 -4 -4 -5 -4 -4 -5 -4 -3 -3 -2 -2 -1 -1 -2 -2 -2 -2 -2 -2 -3 -3 -3 -3 -3 -3 -4 -3 -3 -2 -2 -1 -0 0 -1 -1 -1 -2 -2 -3 -3 -3 -5 -6 -7 -8 -8 -7 -6 -6 -5
-1 -1 -1 -1 -2 -2 -2 -2 -2 -2 -2 -2 -2 -1 -1 -1 -2 -2 -2 -2 -2 -3 -3 -3 -3 -3 -4 -4 -4 -5 -5 -4 -3 -2 -2 -3 -3 -3 -3 -2 -2 -2 -2 -2 -2 -3 -3 -2 -2 -2 -3 -3 -3 -3 -4 -5 -4 -4 -4 -3 -3 -2 -2 -1 -1 -1 -1 -2 -2 -3 -3 -4 -4 -4 -3 -3 -4 -4 -4 -4 -2 -1 -1 -1 -1 -1 -1 -1 -2 -3 -3 -3 -3 -3 -5 -6 -6 -6 -8 -7 -6 -5 -6
-0 -0 -1 -1 -1 -2 -2 -2 -2 -2 -2 -2 -2 -2 -2 -1 -2 -2 -2 -2 -2 -2 -3 -3 -3 -3 -3 -3 -4 -4 -5 -4 -4 -3 -2 -2 -2 -3 -3 -3 -2 -2 -2 -2 -2 -3 -3 -3 -3 -3 -3 -3 -3 -3 -4 -5 -5 -4 -3 -3 -2 -2 -1 -1 -1 -1 -1 -1 -2 -3 -3 -4 -4 -4 -4 -4 -4 -5 -4 -3 -3 -2 -1 -2 -2 -2 -2 -3 -3 -4 -4 -4 -3 -4 -5 -6 -6 -7 -7 -7 -7 -6 -7
-0 -0 -1 -1 -1 -1 -2 -2 -2 -2 -2 -2 -2 -2 -2 -2 -2 -2 -2 -2 -2 -2 -2 -2 -2 -3 -3 -3 -3 -4 -5 -5 -4 -3 -2 -2 -2 -2 -2 -2 -2 -2 -1 -2 -2 -2 -3 -3 -2 -2 -2 -2 -2 -3 -4 -4 -5 -4 -3 -3 -2 -2 -1 -1 -1 -0 -0 -1 -2 -2 -3 -4 -5 -5 -4 -5 -5 -4 -4 -4 -3 -3 -2 -3 -3 -3 -3 -4 -4 -4 -5 -5 -4 -4 -5 -5 -7 -9 -8 -8 -8 -8 -7
-1 -1 -1 -1 -1 -1 -1 -1 -1 -1 -1 -2 -2 -2 -2 -2 -2 -2 -2 -2 -2 -2 -2 -2 -2 -3 -3 -3 -3 -3 -4 -5 -4 -4 -2 -2 -2 -2 -2 -2 -2 -2 -1 -1 -1 -2 -2 -2 -2 -2 -1 -2 -2 -2 -3 -4 -4 -4 -4 -3 -2 -2 -1 -1 -0 0 -0 -1 -2 -3 -4 -4 -5 -5 -5 -5 -4 -4 -4 -4 -4 -4 -3 -3 -4 -5 -5 -4 -4 -5 -5 -4 -4 -4 -5 -6 -6 -7 -7 -7 -7 -8 -9
-1 -1 -1 -1 -1 -1 -1 -1 -1 -1 -1 -1 -2 -2 -2 -2 -2 -2 -2 -2 -2 -2 -2 -2 -2 -2 -3 -3 -3 -3 -4 -4 -4 -4 -3 -2 -2 -2 -2 -2 -2 -1 -1 -2 -2 -2 -2 -2 -2 -1 -1 -1 -2 -2 -3 -3 -3 -3 -3 -3 -2 -2 -2 -1 -1 -1 -1 -1 -2 -3 -4 -4 -4 -5 -5 -5 -5 -5 -5 -5 -5 -4 -4 -4 -4 -5 -6 -6 -6 -6 -6 -5 -5 -6 -7 -6 -7 -7 -7 -8 -9 -11 -12
-1 -1 -1 -1 -1 -1 -2 -2 -2 -1 -1 -1 -2 -2 -2 -2 -2 -2 -2 -2 -2 -2 -2 -2 -2 -2 -2 -3 -3 -3 -3 -3 -3 -3 -3 -2 -2 -2 -2 -2 -2 -2 -1 -1 -2 -2 -2 -2 -2 -1 -1 -1 -1 -1 -2 -2 -2 -2 -3 -3 -3 -2 -3 -2 -2 -2 -2 -2 -3 -3 -3 -3 -4 -4 -5 -5 -5 -5 -5 -5 -5 -5 -4 -4 -4 -5 -6 -7 -7 -7 -7 -7 -7 -7 -7 -6 -7 -8 -9 -10 -10 -9 -8
-1 -1 -1 -1 -1 -1 -2 -2 -2 -2 -1 -1 -1 -2 -2 -2 -2 -2 -2 -2 -2 -2 -2 -2 -2 -2 -2 -2 -2 -2 -2 -2 -2 -2 -2 -2 -2 -2 -2 -1 -2 -2 -2 -2 -2 -2 -2 -2 -1 -1 -1 -1 -1 -1 -1 -1 -1 -1 -2 -3 -3 -4 -3 -3 -4 -4 -3 -3 -3 -3 -2 -2 -2 -3 -3 -4 -5 -5 -6 -6 -6 -6 -5 -5 -5 -6 -6 -8 -8 -7 -7 -7 -8 -8 -7 -7 -8 -9 -9 -8 -5 -2 1
-1 -1 -1 -1 -1 -1 -2 -2 -2 -2 -1 -1 -1 -1 -2 -2 -2 -2 -2 -2 -2 -2 -2 -1 -1 -1 -2 -2 -2 -2 -2 -2 -2 -2 -1 -1 -1 -1 -1 -1 -1 -2 -2 -3 -3 -3 -2 -1 -1 -1 -1 -1 -1 -1 -1 -0 -0 -1 -2 -2 -3 -3 -3 -3 -3 -3 -3 -4 -4 -3 -2 -1 -1 -1 -2 -3 -5 -5 -6 -6 -6 -6 -6 -6 -6 -6 -6 -7 -8 -8 -8 -8 -8 -8 -7 -7 -8 -9 -7 -3 1 2 0
-1 -1 -1 -1 -1 -2 -2 -2 -1 -1 -1 -1 -1 -1 -2 -2 -2 -2 -2 -2 -2 -1 -1 -1 -1 -1 -1 -1 -2 -2 -2 -2 -2 -2 -1 -1 -1 -1 -1 -1 -1 -2 -2 -2 -3 -3 -2 -2 -1 -0 -0 -1 -1 -0 -0 -0 -1 -1 -2 -2 -1 -1 -1 -1 -1 -2 -3 -4 -3 -3 -1 -0 0 -0 -2 -3 -4 -6 -7 -7 -7 -6 -7 -7 -7 -6 -6 -7 -8 -8 -9 -9 -9 -8 -7 -7 -8 -8 -3 2 2 -3 -12
-1 -1 -1 -1 -1 -1 -2 -2 -1 -1 -1 -1 -1 -1 -1 -2 -2 -2 -2 -2 -1 -1 -1 -1 -0 0 -0 -1 -1 -1 -2 -3 -3 -2 -2 -2 -1 -1 -1 -1 -1 -1 -2 -2 -2 -3 -3 -2 -1 -1 -0 -0 -0 0 0 -1 -2 -2 -2 -2 -1 -0 0 0 0 -1 -1 -2 -2 -2 -1 -0 -0 -0 -1 -2 -4 -6 -7 -8 -8 -7 -8 -7 -7 -7 -7 -7 -7 -7 -8 -9 -8 -7 -6 -6 -7 -5 1 5 1 -7 -13
-1 -1 -1 -1 -1 -1 -2 -2 -1 -1 -1 -1 -1 -1 -1 -1 -1 -1 -1 -1 -1 -1 -2 -1 -1 0 1 0 0 -0 -1 -2 -2 -3 -2 -2 -1 -1 -1 -1 -1 -1 -1 -2 -2 -3 -3 -3 -2 -1 -0 -0 0 0 -0 -1 -2 -2 -1 -1 -1 0 1 0 0 1 1 1 -0 -2 -3 -2 -1 -0 -0 -2 -3 -5 -7 -8 -9 -8 -8 -8 -8 -7 -7 -7 -7 -7 -8 -8 -7 -6 -6 -6 -6 -4 0 2 -2 -5 -4
-1 -0 -1 -1 -1 -1 -1 -2 -2 -1 -1 -1 -1 -1 -1 -1 -1 -1 -1 -1 -1 -1 -1 -2 -1 -1 1 1 1 0 0 -1 -2 -2 -2 -2 -1 -1 -0 -1 -1 -1 -1 -1 -2 -3 -3 -3 -3 -2 -1 -1 -0 -0 -1 -1 -2 -2 -1 -1 -0 0 1 0 1 2 2 1 -1 -3 -4 -4 -2 -1 -1 -1 -3 -5 -7 -9 -9 -9 -8 -8 -7 -7 -7 -6 -6 -6 -7 -7 -6 -6 -6 -7 -7 -6 -2 -1 -3 -6 -6
-0 -0 -0 -1 -1 -1 -1 -2 -2 -1 -1 -1 -1 -1 -1 -1 -1 -1 -1 -1 -1 -1 -1 -2 -2 -2 -1 0 0 0 -0 -1 -1 -2 -2 -1 -1 -1 -1 -1 -1 -1 -1 -1 -1 -2 -3 -3 -3 -3 -2 -1 -1 -2 -2 -1 -2 -2 -2 -1 -0 0 1 1 2 1 1 -0 -1 -3 -4 -4 -4 -2 -1 -1 -2 -4 -6 -8 -9 -10 -9 -8 -8 -7 -7 -6 -5 -5 -6 -7 -7 -8 -9 -10 -11 -10 -6 -0 1 -2 -8
-1 -1 -0 -1 -1 -1 -1 -1 -1 -1 -1 -1 -1 -1 -1 -1 -1 -1 -1 -1 -1 -0 -0 -1 -2 -2 -1 -0 -0 -0 -1 -1 -1 -2 -2 -1 -1 -0 -1 -1 -1 -0 -0 -0 -1 -2 -3 -3 -3 -3 -3 -3 -2 -2 -2 -2 -2 -2 -2 -1 -0 0 1 1 1 0 -1 -1 -1 -2 -3 -4 -5 -4 -3 -2 -2 -3 -5 -8 -10 -10 -10 -9 -8 -8 -7 -5 -5 -5 -6 -7 -9 -10 -11 -11 -12 -13 -12 -3 4 6 -2
-1 -1 -1 -1 -1 -1 -1 -1 -1 -1 -1 -1 -1 -1 -1 -1 -1 -1 -1 -1 -1 -1 0 -0 -1 -1 -1 -1 -0 -1 -1 -1 -1 -1 -1 -2 -2 -1 -1 -1 -1 -1 -0 -0 -1 -2 -3 -3 -3 -3 -3 -3 -3 -3 -3 -3 -3 -2 -1 -1 -1 -1 -0 -1 -1 -1 -1 -2 -2 -3 -3 -3 -4 -5 -5 -4 -4 -4 -6 -8 -10 -11 -10 -9 -8 -7 -7 -6 -5 -5 -6 -7 -8 -10 -10 -10 -12 -14 -17 -10 1 8 1
-0 -0 -0 -1 -1 -1 -1 -1 -1 -1 -1 -1 -1 -1 -1 -1 -1 -2 -2 -2 -2 -1 -0 0 -0 -1 -1 -1 -0 -0 -1 -2 -2 -2 -2 -2 -2 -2 -2 -2 -1 -1 -1 -1 -1 -1 -2 -4 -4 -3 -3 -3 -3 -4 -4 -3 -3 -2 -1 -1 -1 -2 -1 -1 -2 -2 -2 -3 -4 -4 -4 -2 -2 -3 -5 -6 -6 -7 -8 -10 -11 -11 -10 -9 -8 -7 -7 -6 -5 -5 -5 -6 -7 -8 -10 -10 -11 -13 -18 -10 -0 5 -1
-0 -0 -0 -0 -1 -1 -1 -1 -1 -1 -1 -1 -1 -1 -1 -1 -1 -2 -2 -2 -2 -2 -1 0 0 0 -0 -1 -1 -0 -1 -2 -3 -3 -3 -3 -3 -2 -2 -2 -2 -1 -1 -1 -1 -1 -2 -3 -4 -4 -3 -3 -4 -4 -4 -3 -2 -2 -1 -1 -2 -3 -2 -2 -2 -3 -3 -4 -5 -5 -5 -4 -2 -1 -2 -5 -6 -7 -9 -10 -11 -11 -11 -9 -8 -7 -7 -6 -6 -5 -5 -5 -6 -7 -9 -10 -10 -11 -14 -7 -2 -0 -4
-1 -0 -0 -0 -0 -1 -1 -1 -1 -1 -1 -1 -1 -1 -0 -1 -1 -1 -2 -2 -2 -2 -2 -1 0 1 1 1 1 0 -0 -1 -2 -3 -2 -3 -4 -3 -2 -1 -1 -1 -1 -0 -1 -1 -2 -3 -4 -4 -4 -3 -4 -4 -3 -2 -2 -2 -2 -2 -3 -3 -3 -2 -2 -3 -5 -5 -5 -5 -4 -4 -3 -2 -2 -3 -4 -6 -8 -10 -12 -12 -11 -9 -8 -7 -7 -6 -6 -6 -5 -5 -5 -6 -8 -10 -11 -11 -10 -1 2 0 -3
-1 -0 -0 -0 -0 -1 -1 -1 -1 -1 -1 -1 -1 -0 -0 -1 -1 -1 -1 -1 -1 -1 -1 -1 -0 0 1 2 2 2 1 -0 -2 -3 -3 -2 -3 -4 -4 -2 -1 -1 -1 -0 -0 -1 -3 -4 -4 -4 -4 -4 -4 -4 -3 -2 -1 -2 -3 -4 -3 -3 -3 -3 -3 -4 -5 -6 -6 -5 -4 -4 -4 -3 -2 -3 -3 -5 -6 -9 -11 -12 -12 -10 -8 -7 -7 -6 -5 -5 -5 -5 -5 -6 -7 -10 -12 -12 -9 1 7 7 -0
-0 -0 -0 -0 -0 -1 -1 -0 -0 -1 -1 -1 -0 -0 -0 -1 -1 -1 -1 -1 -1 -1 -1 -1 -1 -0 0 1 2 3 2 1 -0 -1 -2 -3 -2 -2 -4 -4 -4 -3 -3 -2 -1 -1 -2 -4 -4 -4 -5 -4 -3 -2 -2 -2 -2 -2 -4 -4 -4 -3 -3 -4 -5 -6 -7 -6 -5 -4 -3 -2 -3 -3 -3 -2 -3 -3 -4 -6 -9 -11 -12 -12 -10 -8 -7 -6 -5 -4 -5 -6 -7 -7 -8 -9 -12 -13 -12 -4 4 7 2
-0 -0 0 -0 -0 -1 -0 -0 -0 -1 -1 -1 -0 -0 -0 -1 -1 -1 -1 -1 -1 -1 -0 -0 -1 -1 -1 0 1 2 3 1 0 0 1 -2 -3 -3 -2 -5 -5 -5 -6 -7 -5 -3 -2 -4 -4 -4 -5 -6 -4 -2 -1 -2 -3 -4 -4 -4 -4 -4 -4 -5 -6 -7 -8 -7 -5 -3 -2 -1 -0 -1 -2 -2 -2 -2 -3 -4 -6 -8 -10 -11 -11 -10 -10 -9 -8 -6 -6 -8 -9 -9 -9 -9 -11 -13 -14 -9 -2 3 5
-1 -0 -0 -0 -0 -0 0 -0 -0 -1 -0 -1 -1 -1 -1 -1 -1 -1 -1 -1 -1 -1 -1 0 0 -0 -2 -1 0 1 2 2 0 -0 2 0 -2 -3 -2 -4 -7 -8 -5 -5 -6 -7 -3 -4 -5 -5 -2 -3 -4 -4 -2 -3 -4 -4 -3 -4 -4 -5 -5 -6 -7 -8 -8 -8 -6 -4 -2 -0 1 1 -0 -1 -2 -2 -3 -3 -3 -4 -5 -7 -8 -9 -10 -11 -10 -9 -8 -9 -10 -10 -10 -9 -9 -10 -11 -9 -5 0 3
-0 0 -0 -0 -0 0 0 -0 -1 -1 -1 -1 -1 -0 -0 -1 -1 -1 -1 -1 -1 -1 -1 -1 0 0 -1 -1 -0 1 1 2 1 -0 -1 1 0 -2 -4 -3 -4 -6 -9 -6 -5 -4 -4 -0 0 -2 -4 -1 -1 -2 -4 -4 -5 -5 -2 -2 -4 -6 -6 -6 -6 -7 -7 -7 -6 -5 -4 -3 -1 0 1 -0 -1 -2 -2 -2 -2 -3 -4 -5 -6 -7 -8 -8 -8 -7 -9 -9 -8 -8 -8 -8 -9 -9 -8 -8 -5 -2 -2
-0 0 0 -0 0 0 0 -0 -1 -1 -1 -1 -1 -0 -0 -1 -1 -1 -0 -0 -1 -1 -1 -1 -1 -1 -0 -1 -0 1 2 2 2 1 -1 -1 0 0 -3 -4 -2 -1 -4 -8 -7 -4 3 3 5 3 -7 -7 -5 -4 -3 -3 -5 -5 -4 -2 -3 -5 -7 -6 -6 -6 -6 -7 -6 -5 -5 -4 -3 -2 -1 -1 -1 -2 -1 -1 -2 -3 -4 -5 -6 -7 -8 -8 -7 -7 -8 -8 -7 -6 -6 -7 -8 -8 -7 -6 -6 -5 -3
0 0 0 0 0 0 -0 -0 -0 -0 -1 -1 -1 -1 -1 -1 -0 -0 -0 -0 -0 -0 -1 -1 -1 -1 -1 -1 -1 0 2 2 2 2 1 -2 -1 1 2 -2 -3 -4 -3 -4 -5 -3 5 4 -1 -5 -6 -6 -7 -8 -8 -3 -2 -3 -6 -6 -4 -3 -4 -5 -5 -5 -5 -6 -6 -6 -5 -4 -4 -4 -3 -3 -3 -3 -3 -3 -2 -2 -3 -3 -4 -5 -6 -7 -8 -8 -9 -9 -8 -7 -7 -7 -8 -8 -7 -5 -6 -6 -4
0 1 1 0 0 -0 -0 -0 -0 -1 -1 -1 -1 -1 -1 -1 -0 -0 -0 -0 0 0 -0 -1 -1 -2 -1 -1 -1 -0 1 2 2 2 3 0 -1 -1 2 1 -1 -2 0 0 0 -0 -2 -2 -5 -9 -10 -4 -1 -1 -7 -6 -2 1 -2 -6 -7 -6 -3 -4 -4 -4 -4 -3 -4 -4 -5 -6 -6 -6 -5 -4 -4 -4 -4 -4 -3 -3 -2 -2 -2 -4 -5 -6 -7 -8 -10 -12 -12 -11 -10 -9 -10 -10 -7 -5 -5 -5 -6
1 1 0 -0 -0 0 0 -0 -0 -1 -1 -1 -1 -1 -0 -0 -0 -1 -1 -0 -0 -0 -0 -1 -1 -1 -2 -1 -1 -0 0 2 2 2 2 3 1 -1 -2 1 1 0 -1 1 1 -1 -2 -6 -7 -4 0 -3 -2 -1 -1 -7 -7 -5 -1 -2 -5 -6 -7 -6 -5 -5 -6 -4 -3 -2 -3 -6 -8 -8 -7 -6 -6 -5 -4 -4 -3 -3 -3 -3 -4 -5 -6 -7 -8 -9 -11 -14 -16 -16 -15 -13 -12 -11 -8 -6 -5 -6 -5
0 -0 -0 0 0 0 0 -0 -0 -0 -0 -0 -0 -0 0 -0 -1 -1 -1 -0 -0 -0 -1 -1 -1 -1 -1 -2 -1 -1 -1 1 2 2 1 2 3 2 -1 -1 -0 1 1 -1 -2 -3 -2 -3 -5 -6 -6 -1 -4 -8 -4 -2 -5 -9 -9 -7 -5 -4 -3 -4 -5 -7 -8 -7 -6 -4 -3 -4 -6 -8 -9 -8 -8 -7 -5 -4 -3 -3 -3 -4 -4 -5 -7 -7 -8 -9 -11 -12 -15 -17 -17 -14 -11 -9 -7 -5 -6 -5 -2
-0 -0 0 0 0 -0 -1 -0 -0 0 0 0 -0 -0 -0 -1 -1 -1 -0 -0 0 -0 -1 -1 -1 -1 -0 -1 -1 -1 -1 -1 2 3 2 1 2 3 4 1 -0 -0 -0 -1 -2 -3 -3 -0 1 -2 -12 -11 -4 -0 -7 -5 -3 -2 -4 -7 -9 -9 -6 -3 -3 -5 -7 -6 -6 -5 -5 -4 -4 -6 -8 -9 -9 -8 -7 -5 -3 -2 -3 -3 -4 -5 -6 -7 -7 -7 -8 -9 -11 -13 -14 -11 -9 -7 -6 -5 -4 -2 3
0 0 0 -0 -0 -0 -0 -0 0 0 0 0 -0 -1 -1 -1 -1 -1 -0 -0 -0 -0 -1 -1 -1 -0 -0 -1 -1 -1 -2 -1 0 1 2 2 1 2 4 4 2 1 2 1 0 -1 -1 -1 -0 -0 -1 -10 -13 -9 4 -3 -6 -6 -3 -1 -3 -7 -11 -9 -8 -6 -6 -4 -3 -3 -5 -5 -5 -5 -6 -7 -8 -8 -7 -5 -3 -2 -2 -3 -4 -5 -6 -6 -6 -6 -5 -5 -6 -8 -8 -8 -8 -7 -5 -4 -3 -0 4
0 0 0 -1 -1 -0 -0 0 0 0 1 0 -1 -1 -1 -0 -0 -0 -1 -0 -0 -1 -1 -1 -0 -0 -0 -1 -1 -1 -2 -1 -0 -0 0 1 0 0 2 3 3 2 2 3 3 3 2 0 -0 1 3 1 -8 -17 -19 -6 -2 -4 -8 -6 -2 -0 -3 -6 -8 -9 -11 -7 -3 -1 -3 -6 -6 -5 -5 -6 -7 -7 -8 -6 -4 -2 -2 -3 -3 -4 -5 -6 -6 -6 -6 -5 -5 -5 -6 -7 -7 -6 -5 -4 -3 -2 -1
0 0 -0 -1 -1 -0 0 -0 0 0 1 0 -1 -1 -1 -0 -0 -1 -1 -1 -0 -1 -1 -0 0 0 -0 -1 -1 -1 -1 -1 -1 -0 -0 -0 -0 -1 0 1 1 2 3 3 3 4 4 4 4 3 3 4 2 -4 -16 -18 -11 -3 -2 -4 -5 -4 -2 0 -0 -3 -10 -11 -8 -4 -3 -6 -7 -7 -6 -6 -7 -7 -8 -8 -6 -4 -3 -3 -3 -4 -5 -6 -6 -6 -6 -6 -5 -5 -5 -7 -7 -6 -3 -3 -2 -1 1
Height
1588 1588 1588 1587 1587 1587 1586 1586 1586 1585 1585 1585 1584 1584 1583 1583 1582 1582 1581 1581 1580 1579 1579 1578 1578 1578 1577 1577 1576 1575 1575 1574 1573 1573 1572 1572 1571 1570 1569 1569 1568 1568 1567 1567 1566 1565 1564 1563 1562 1562 1561 1560 1559 1559 1558 1558 1558 1558 1557 1557 1557 1556 1556 1556 1556 1556 1555 1555 1554 1554 1553 1552 1551 1550 1549 1549 1548 1548 1547 1546 1546 1546 1545 1545 1544 1544 1544 1543 1543 1542 1542 1542 1542 1542 1542 1541 1541 1541 1541 1541 1541 1541 1541
1588 1588 1587 1587 1587 1586 1586 1586 1585 1585 1585 1584 1584 1583 1583 1583 1582 1582 1581 1581 1580 1579 1579 1578 1578 1578 1577 1577 1576 1575 1575 1574 1573 1573 1572 1572 1571 1570 1569 1568 1568 1568 1567 1566 1565 1565 1564 1563 1562 1561 1560 1559 1559 1558 1558 1557 1557 1557 1556 1556 1555 1555 1555 1555 1554 1554 1554 1554 1553 1553 1553 1552 1551 1550 1550 1549 1548 1547 1547 1546 1545 1545 1544 1544 1543 1543 1543 1542 1542 1541 1541 1541 1540 1540 1540 1540 1540 1540 1540 1540 1540 1540 1540
1587 1587 1587 1586 1586 1586 1586 1585 1585 1585 1584 1584 1583 1583 1583 1582 1582 1582 1581 1581 1580 1579 1579 1578 1578 1578 1577 1577 1576 1575 1575 1574 1573 1573 1572 1571 1571 1570 1569 1568 1568 1567 1566 1566 1565 1564 1563 1563 1562 1561 1560 1559 1558 1558 1557 1556 1556 1556 1555 1555 1554 1554 1553 1553 1553 1553 1553 1553 1553 1552 1552 1551 1551 1550 1549 1549 1548 1547 1546 1546 1545 1544 1544 1543 1543 1542 1542 1541 1541 1540 1540 1539 1539 1539 1539 1539 1539 1538 1538 1538 1538 1538 1538
1587 1587 1586 1586 1586 1586 1585 1585 1585 1584 1584 1584 1583 1583 1583 1582 1582 1581 1581 1580 1580 1579 1579 1578 1578 1578 1577 1576 1576 1575 1574 1574 1573 1573 1572 1571 1570 1569 1569 1568 1567 1566 1566 1565 1564 1564 1563 1562 1561 1560 1559 1558 1558 1557 1556 1556 1555 1555 1554 1554 1553 1553 1553 1552 1552 1552 1552 1552 1551 1551 1551 1550 1550 1549 1549 1548 1548 1547 1546 1546 1545 1544 1543 1543 1542 1541 1541 1540 1540 1539 1539 1538 1538 1538 1537 1537 1537 1537 1537 1537 1537 1537 1537
1587 1586 1586 1586 1585 1585 1585 1585 1584 1584 1584 1583 1583 1583 1583 1582 1582 1581 1581 1580 1580 1579 1579 1578 1578 1577 1577 1576 1576 1575 1574 1573 1573 1572 1571 1571 1570 1569 1568 1568 1567 1566 1565 1564 1563 1563 1562 1561 1561 1560 1559 1558 1557 1557 1556 1555 1555 1554 1553 1553 1553 1552 1552 1551 1551 1551 1551 1551 1550 1550 1550 1549 1549 1548 1548 1547 1547 1546 1546 1545 1544 1543 1543 1542 1541 1540 1540 1539 1538 1538 1538 1538 1537 1537 1536 1536 1536 1535 1535 1535 1535 1535 1535
1587 1586 1586 1586 1585 1585 1585 1585 1584 1584 1583 1583 1583 1583 1582 1582 1582 1581 1581 1580 1580 1579 1578 1578 1578 1577 1577 1576 1575 1575 1574 1573 1573 1572 1571 1570 1569 1568 1568 1567 1566 1565 1564 1563 1563 1562 1561 1561 1560 1559 1558 1558 1557 1556 1555 1555 1554 1553 1553 1552 1552 1551 1551 1551 1550 1550 1550 1550 1550 1549 1549 1548 1548 1547 1547 1546 1546 1545 1545 1544 1543 1543 1542 1541 1541 1540 1539 1538 1538 1537 1537 1536 1536 1536 1535 1535 1534 1534 1534 1534 1534 1533 1533
1587 1586 1586 1585 1585 1585 1585 1584 1584 1583 1583 1583 1583 1582 1582 1582 1581 1581 1580 1580 1579 1579 1578 1578 1577 1577 1576 1576 1575 1574 1574 1573 1572 1571 1571 1570 1569 1568 1567 1566 1565 1564 1563 1563 1562 1561 1560 1560 1559 1558 1558 1557 1556 1556 1555 1554 1554 1553 1553 1552 1551 1551 1550 1550 1550 1550 1549 1549 1549 1548 1548 1548 1547 1547 1546 1545 1545 1544 1543 1543 1542 1542 1541 1540 1540 1539 1538 1538 1537 1536 1536 1535 1535 1534 1534 1533 1533 1533 1532 1532 1532 1532 1532
1586 1586 1586 1585 1585 1585 1584 1584 1584 1583 1583 1583 1582 1582 1582 1581 1581 1581 1580 1580 1579 1579 1578 1578 1577 1577 1576 1575 1575 1574 1573 1573 1572 1571 1570 1569 1568 1568 1567 1566 1565 1564 1563 1562 1561 1560 1559 1559 1558 1558 1557 1556 1556 1555 1554 1554 1553 1553 1552 1551 1551 1550 1550 1549 1549 1549 1548 1548 1548 1547 1547 1547 1546 1545 1545 1544 1544 1543 1543 1542 1541 1541 1540 1539 1538 1538 1537 1537 1536 1535 1535 1534 1534 1533 1533 1533 1532 1532 1531 1531 1530 1530 1530
1586 1586 1585 1585 1585 1584 1584 1584 1583 1583 1583 1582 1582 1582 1581 1581 1581 1580 1580 1579 1579 1578 1578 1578 1577 1576 1576 1575 1574 1574 1573 1572 1572 1571 1570 1569 1568 1567 1566 1565 1564 1563 1562 1561 1560 1559 1558 1558 1557 1557 1556 1555 1555 1554 1554 1553 1553 1552 1551 1551 1550 1550 1549 1549 1548 1548 1548 1547 1547 1546 1546 1545 1545 1544 1543 1543 1543 1542 1541 1541 1540 1539 1539 1538 1538 1537 1536 1535 1535 1534 1533 1533 1533 1532 1532 1532 1531 1530 1530 1529 1529 1529 1528
1586 1585 1585 1585 1584 1584 1584 1583 1583 1583 1582 1582 1582 1581 1581 1580 1580 1580 1579 1579 1579 1578 1578 1577 1577 1576 1576 1575 1574 1573 1573 1572 1571 1570 1569 1568 1568 1567 1566 1565 1564 1563 1562 1560 1559 1558 1558 1557 1556 1555 1555 1554 1554 1553 1553 1552 1551 1551 1550 1550 1549 1549 1548 1548 1548 1547 1547 1547 1546 1545 1545 1544 1543 1543 1542 1542 1541 1541 1540 1539 1539 1538 1538 1537 1536 1536 1535 1534 1533 1533 1532 1532 1531 1531 1530 1530 1530 1529 1529 1528 1528 1528 1527
1585 1585 1585 1584 1584 1583 1583 1583 1583 1582 1582 1581 1581 1581 1580 1580 1580 1579 1579 1579 1578 1578 1578 1577 1576 1576 1575 1574 1574 1573 1573 1572 1571 1570 1569 1568 1567 1566 1565 1564 1563 1562 1561 1560 1558 1558 1557 1556 1555 1554 1554 1553 1553 1552 1551 1551 1550 1549 1549 1548 1548 1548 1547 1547 1547 1546 1546 1546 1545 1545 1544 1543 1543 1542 1541 1540 1540 1539 1539 1538 1538 1537 1536 1536 1535 1534 1533 1533 1532 1532 1531 1530 1530 1529 1529 1528 1528 1528 1527 1527 1527 1526 1526
1585 1584 1584 1584 1583 1583 1583 1583 1582 1582 1581 1581 1581 1580 1580 1579 1579 1579 1578 1578 1578 1578 1577 1577 1576 1575 1575 1574 1573 1573 1572 1571 1570 1569 1568 1567 1566 1565 1564 1563 1562 1561 1559 1558 1558 1557 1556 1555 1554 1553 1552 1552 1551 1550 1549 1549 1548 1548 1547 1547 1546 1546 1546 1546 1546 1545 1545 1544 1544 1543 1543 1542 1541 1541 1540 1539 1538 1538 1537 1537 1536 1535 1535 1534 1533 1533 1532 1532 1531 1530 1529 1529 1528 1528 1527 1527 1526 1526 1526 1525 1525 1525 1524
1584 1584 1584 1583 1583 1583 1582 1582 1582 1581 1581 1580 1580 1580 1579 1579 1579 1578 1578 1578 1578 1577 1577 1576 1575 1575 1574 1573 1573 1572 1571 1570 1569 1568 1567 1566 1565 1564 1563 1562 1560 1559 1558 1557 1556 1555 1554 1553 1553 1552 1551 1550 1549 1548 1548 1547 1547 1546 1546 1545 1545 1545 1545 1545 1545 1544 1544 1543 1543 1542 1542 1541 1540 1539 1539 1538 1537 1537 1536 1535 1534 1534 1533 1533 1532 1531 1531 1530 1529 1529 1528 1527 1527 1526 1525 1525 1525 1524 1524 1524 1523 1523 1523
1584 1584 1583 1583 1583 1582 1582 1582 1581 1581 1580 1580 1579 1579 1579 1578 1578 1578 1577 1577 1577 1576 1576 1575 1575 1574 1574 1573 1572 1571 1570 1569 1568 1568 1567 1565 1564 1563 1562 1560 1559 1558 1557 1556 1555 1554 1553 1552 1551 1550 1549 1549 1548 1547 1547 1546 1546 1545 1544 1544 1544 1544 1544 1543 1543 1543 1543 1542 1542 1541 1540 1539 1539 1538 1538 1537 1536 1535 1535 1534 1533 1533 1532 1531 1530 1530 1529 1528 1528 1527 1526 1525 1525 1524 1524 1523 1523 1523 1522 1522 1521 1521 1521
1583 1583 1583 1582 1582 1582 1581 1581 1581 1580 1580 1579 1579 1579 1578 1578 1578 1577 1577 1576 1576 1576 1575 1575 1574 1573 1573 1572 1572 1571 1570 1568 1568 1567 1565 1564 1563 1562 1560 1559 1558 1557 1556 1555 1554 1553 1552 1551 1550 1549 1548 1548 1547 1546 1546 1545 1544 1544 1543 1543 1543 1543 1543 1542 1542 1541 1541 1541 1540 1539 1539 1538 1538 1537 1536 1536 1535 1534 1533 1533 1532 1531 1531 1530 1529 1528 1528 1527 1526 1525 1524 1523 1523 1523 1522 1521 1521 1520 1520 1520 1520 1519 1519
1583 1583 1582 1582 1581 1581 1581 1580 1580 1580 1579 1579 1578 1578 1578 1577 1577 1577 1576 1576 1575 1575 1574 1574 1573 1573 1572 1572 1571 1570 1569 1568 1567 1566 1565 1563 1562 1561 1560 1558 1557 1556 1555 1554 1553 1552 1551 1550 1549 1548 1548 1547 1546 1546 1545 1544 1543 1543 1543 1542 1542 1541 1541 1541 1540 1540 1539 1539 1539 1538 1538 1537 1537 1536 1535 1534 1534 1533 1532 1532 1531 1530 1529 1528 1528 1527 1527 1526 1525 1524 1523 1522 1521 1521 1520 1519 1519 1518 1518 1518 1517 1517 1517
1583 1582 1582 1581 1581 1580 1580 1580 1580 1579 1579 1578 1578 1578 1577 1577 1576 1576 1575 1575 1574 1574 1573 1573 1572 1572 1571 1571 1570 1569 1568 1567 1566 1565 1564 1563 1562 1560 1559 1558 1557 1556 1554 1553 1552 1551 1550 1549 1549 1548 1547 1546 1546 1545 1544 1543 1543 1542 1542 1541 1541 1540 1540 1539 1539 1539 1538 1538 1538 1538 1537 1536 1536 1535 1534 1533 1533 1532 1531 1530 1530 1529 1528 1527 1526 1526 1525 1524 1523 1522 1521 1520 1519 1519 1518 1517 1517 1516 1516 1515 1515 1514 1514
1582 1582 1581 1581 1580 1580 1579 1579 1579 1579 1578 1578 1578 1577 1577 1576 1576 1575 1575 1574 1574 1573 1573 1572 1571 1571 1570 1569 1569 1568 1567 1566 1565 1564 1563 1562 1561 1560 1558 1557 1556 1555 1554 1553 1552 1551 1550 1549 1548 1547 1547 1546 1545 1544 1543 1543 1542 1542 1541 1540 1540 1539 1539 1538 1538 1538 1537 1538 1537 1537 1536 1535 1535 1534 1533 1533 1532 1531 1530 1530 1529 1528 1527 1526 1525 1524 1523 1523 1522 1521 1520 1519 1518 1517 1516 1516 1515 1514 1513 1513 1513 1512 1512
1582 1581 1581 1580 1580 1579 1579 1578 1578 1578 1578 1577 1577 1576 1576 1575 1575 1575 1574 1573 1573 1572 1572 1571 1570 1570 1569 1568 1568 1567 1566 1565 1564 1563 1562 1561 1560 1559 1558 1557 1555 1554 1553 1552 1551 1550 1549 1548 1548 1547 1546 1545 1544 1544 1543 1542 1542 1541 1540 1540 1539 1538 1538 1537 1537 1537 1536 1536 1536 1535 1535 1534 1534 1533 1532 1531 1531 1530 1529 1529 1528 1527 1526 1525 1524 1523 1522 1521 1520 1519 1518 1517 1516 1515 1515 1514 1513 1512 1512 1511 1511 1510 1510
1581 1580 1580 1580 1579 1579 1578 1578 1578 1577 1577 1577 1576 1576 1575 1575 1574 1574 1573 1573 1572 1572 1571 1570 1570 1569 1568 1567 1566 1566 1565 1563 1563 1562 1561 1559 1558 1558 1557 1556 1554 1553 1553 1552 1551 1550 1549 1548 1547 1546 1545 1545 1544 1543 1542 1542 1541 1540 1539 1539 1538 1537 1537 1536 1536 1535 1535 1535 1535 1534 1534 1533 1533 1532 1531 1530 1530 1529 1528 1527 1526 1526 1525 1524 1523 1522 1521 1520 1519 1518 1517 1516 1515 1514 1513 1512 1511 1510 1509 1509 1508 1508 1508
1580 1580 1579 1579 1578 1578 1578 1578 1577 1577 1576 1576 1576 1575 1575 1574 1574 1573 1573 1572 1572 1571 1570 1569 1569 1568 1567 1566 1565 1564 1563 1563 1562 1560 1559 1558 1558 1557 1556 1555 1554 1553 1552 1551 1550 1549 1548 1547 1547 1546 1545 1544 1543 1543 1542 1541 1540 1539 1539 1538 1537 1537 1536 1535 1535 1534 1534 1534 1534 1533 1533 1532 1532 1531 1530 1529 1528 1528 1527 1526 1525 1525 1524 1523 1522 1521 1520 1519 1518 1517 1516 1514 1513 1512 1511 1510 1509 1508 1508 1507 1506 1506 1505
1579 1579 1579 1578 1578 1578 1577 1577 1576 1576 1576 1575 1575 1574 1574 1573 1573 1573 1572 1571 1571 1570 1569 1568 1568 1567 1566 1565 1564 1563 1562 1561 1560 1559 1558 1558 1557 1556 1555 1554 1553 1552 1551 1550 1549 1548 1548 1547 1546 1545 1544 1543 1543 1542 1541 1540 1540 1539 1538 1537 1537 1536 1535 1534 1533 1533 1533 1533 1533 1532 1532 1531 1530 1530 1529 1528 1528 1527 1526 1525 1524 1523 1523 1522 1521 1520 1519 1518 1517 1515 1514 1513 1512 1510 1509 1508 1507 1506 1505 1504 1504 1503 1503
1579 1578 1578 1578 1577 1577 1577 1576 1576 1575 1575 1574 1574 1574 1573 1573 1572 1572 1571 1571 1570 1569 1568 1568 1567 1566 1565 1564 1563 1562 1561 1560 1559 1558 1558 1557 1556 1555 1554 1553 1553 1552 1551 1550 1549 1548 1547 1546 1545 1544 1543 1543 1542 1541 1540 1540 1539 1538 1537 1537 1536 1535 1533 1533 1532 1532 1532 1532 1531 1531 1530 1530 1529 1528 1528 1527 1526 1525 1524 1524 1523 1522 1521 1520 1519 1518 1518 1516 1515 1514 1513 1511 1510 1508 1507 1506 1505 1504 1503 1502 1502 1501 1500
1578 1578 1577 1577 1577 1576 1576 1575 1575 1575 1574 1574 1573 1573 1573 1572 1572 1571 1570 1570 1569 1568 1568 1567 1566 1565 1564 1563 1562 1561 1560 1559 1558 1558 1557 1556 1555 1554 1553 1553 1552 1551 1550 1549 1548 1547 1546 1545 1544 1543 1543 1542 1541 1540 1539 1539 1538 1537 1536 1536 1535 1533 1533 1532 1531 1531 1530 1530 1530 1530 1529 1528 1528 1527 1527 1526 1525 1524 1523 1523 1522 1521 1520 1519 1518 1517 1516 1514 1513 1512 1510 1509 1508 1506 1505 1504 1503 1502 1501 1500 1499 1498 1498
1578 1577 1577 1576 1576 1575 1575 1574 1574 1574 1573 1573 1573 1572 1572 1571 1571 1570 1569 1569 1568 1568 1567 1566 1565 1564 1563 1562 1561 1560 1559 1558 1557 1556 1556 1555 1554 1553 1553 1552 1551 1550 1549 1548 1548 1547 1546 1545 1543 1543 1542 1541 1540 1539 1538 1538 1537 1536 1535 1534 1533 1532 1531 1530 1530 1529 1529 1529 1529 1528 1528 1527 1527 1526 1525 1524 1523 1523 1522 1521 1520 1519 1518 1517 1516 1515 1513 1512 1511 1509 1508 1507 1505 1504 1503 1501 1500 1499 1498 1498 1497 1496 1496
1577 1576 1576 1575 1575 1574 1574 1573 1573 1573 1573 1572 1572 1571 1571 1570 1570 1569 1568 1568 1567 1566 1566 1565 1564 1563 1562 1561 1560 1559 1558 1557 1556 1555 1555 1554 1553 1553 1552 1551 1550 1549 1549 1548 1547 1546 1545 1544 1543 1542 1541 1540 1539 1538 1537 1536 1536 1535 1534 1533 1532 1531 1529 1529 1528 1528 1528 1528 1527 1527 1526 1525 1525 1524 1523 1522 1521 1520 1519 1519 1518 1517 1516 1515 1513 1513 1511 1510 1508 1507 1506 1504 1503 1501 1500 1499 1498 1497 1496 1495 1494 1493 1493
1575 1575 1575 1574 1574 1573 1573 1573 1572 1572 1571 1571 1571 1570 1570 1569 1568 1568 1567 1567 1566 1565 1564 1563 1563 1562 1561 1560 1559 1558 1558 1557 1556 1555 1554 1553 1552 1552 1551 1550 1549 1548 1548 1547 1546 1545 1544 1543 1542 1541 1539 1538 1538 1537 1536 1535 1534 1533 1532 1531 1530 1529 1528 1527 1527 1526 1526 1526 1525 1525 1524 1523 1523 1522 1521 1520 1519 1518 1517 1517 1516 1515 1514 1513 1511 1510 1508 1507 1506 1504 1503 1502 1500 1499 1498 1496 1495 1494 1493 1493 1492 1491 1490
1574 1574 1574 1573 1573 1573 1572 1572 1571 1571 1570 1570 1569 1569 1568 1568 1567 1567 1566 1565 1565 1564 1563 1562 1561 1561 1560 1559 1558 1558 1557 1556 1555 1554 1553 1552 1551 1551 1550 1549 1548 1548 1547 1546 1545 1544 1543 1542 1541 1540 1538 1537 1536 1535 1534 1533 1533 1531 1530 1529 1528 1528 1527 1526 1525 1525 1524 1524 1523 1523 1522 1521 1520 1519 1519 1518 1517 1516 1515 1514 1513 1513 1511 1510 1509 1507 1506 1504 1503 1502 1500 1499 1498 1497 1495 1494 1493 1492 1491 1490 1489 1488 1488
1573 1573 1573 1572 1572 1571 1571 1570 1570 1570 1569 1569 1568 1568 1568 1567 1566 1565 1565 1564 1563 1563 1562 1561 1560 1559 1558 1558 1557 1556 1555 1555 1554 1553 1552 1551 1550 1550 1549 1548 1548 1547 1546 1545 1544 1543 1542 1541 1540 1538 1538 1536 1535 1534 1533 1532 1531 1530 1529 1528 1527 1526 1525 1524 1524 1523 1523 1522 1522 1521 1520 1519 1518 1517 1517 1516 1515 1514 1513 1512 1511 1510 1509 1508 1506 1504 1503 1502 1500 1499 1498 1496 1495 1494 1493 1492 1491 1489 1488 1488 1487 1486 1485
1572 1572 1571 1571 1571 1570 1570 1569 1569 1568 1568 1568 1567 1567 1566 1566 1565 1564 1563 1563 1562 1561 1560 1559 1558 1558 1557 1556 1555 1555 1554 1553 1553 1552 1551 1550 1549 1548 1548 1547 1546 1545 1545 1543 1543 1542 1541 1539 1538 1537 1536 1535 1534 1533 1531 1530 1529 1528 1527 1526 1525 1524 1523 1523 1522 1521 1521 1520 1520 1519 1518 1517 1516 1515 1514 1514 1513 1512 1511 1510 1509 1508 1506 1505 1503 1502 1500 1499 1498 1497 1495 1494 1493 1492 1491 1489 1488 1487 1487 1485 1484 1483 1483
1571 1570 1570 1570 1569 1569 1568 1568 1568 1567 1567 1566 1566 1565 1565 1564 1563 1563 1562 1561 1560 1559 1558 1558 1557 1556 1555 1555 1554 1553 1553 1552 1551 1551 1550 1549 1548 1548 1547 1546 1545 1544 1543 1543 1541 1540 1539 1538 1537 1536 1535 1533 1532 1531 1530 1528 1528 1527 1526 1525 1524 1523 1522 1521 1520 1520 1519 1519 1518 1517 1516 1515 1514 1513 1513 1512 1511 1510 1508 1508 1506 1505 1503 1502 1501 1499 1498 1497 1495 1494 1493 1492 1491 1489 1488 1487 1486 1485 1484 1483 1482 1481 1480
1569 1569 1569 1568 1568 1568 1567 1567 1567 1566 1566 1565 1565 1564 1563 1563 1562 1562 1561 1560 1559 1558 1557 1556 1556 1555 1554 1553 1553 1552 1551 1551 1550 1549 1548 1548 1547 1546 1545 1545 1544 1543 1542 1541 1540 1539 1538 1537 1535 1534 1533 1532 1531 1530 1528 1527 1526 1525 1524 1523 1522 1521 1520 1519 1519 1518 1518 1517 1516 1515 1514 1513 1513 1512 1511 1510 1508 1507 1506 1505 1504 1502 1501 1500 1498 1497 1495 1494 1493 1492 1491 1490 1488 1487 1486 1485 1484 1483 1482 1481 1480 1479 1478
1568 1568 1568 1567 1567 1566 1566 1565 1565 1565 1564 1564 1563 1563 1562 1562 1561 1560 1559 1558 1558 1557 1556 1555 1554 1553 1553 1552 1551 1550 1550 1549 1548 1548 1547 1546 1546 1545 1544 1543 1543 1542 1541 1540 1539 1538 1536 1535 1534 1533 1532 1531 1530 1528 1527 1526 1524 1523 1522 1521 1520 1519 1518 1518 1517 1517 1516 1515 1514 1513 1512 1511 1510 1509 1508 1508 1506 1505 1504 1503 1501 1500 1498 1497 1496 1494 1493 1492 1491 1490 1489 1488 1486 1485 1484 1483 1482 1481 1479 1478 1478 1476 1475
1567 1567 1566 1566 1565 1565 1564 1564 1564 1563 1563 1562 1562 1561 1561 1560 1559 1558 1558 1557 1556 1555 1554 1553 1553 1552 1551 1550 1550 1549 1548 1547 1547 1546 1545 1545 1544 1543 1543 1542 1541 1540 1540 1538 1538 1536 1535 1534 1533 1532 1531 1530 1528 1527 1526 1524 1523 1521 1520 1519 1518 1518 1517 1516 1516 1515 1514 1513 1512 1511 1510 1509 1508 1507 1506 1505 1504 1503 1502 1500 1499 1498 1496 1495 1493 1492 1491 1490 1489 1488 1487 1486 1484 1483 1482 1481 1480 1478 1477 1476 1475 1474 1473
1565 1565 1565 1564 1564 1563 1563 1563 1562 1562 1561 1561 1560 1560 1559 1558 1558 1557 1556 1555 1554 1553 1553 1552 1551 1550 1549 1549 1548 1547 1547 1546 1545 1545 1544 1543 1543 1542 1541 1540 1540 1539 1538 1537 1536 1535 1534 1533 1532 1531 1529 1528 1527 1526 1524 1523 1522 1520 1519 1518 1517 1516 1515 1515 1514 1513 1513 1512 1510 1509 1508 1507 1506 1505 1504 1503 1502 1501 1499 1498 1497 1495 1494 1493 1491 1490 1489 1488 1487 1486 1485 1483 1483 1481 1480 1479 1478 1476 1475 1474 1473 1472 1471
1564 1563 1563 1563 1563 1562 1562 1561 1561 1560 1560 1559 1559 1558 1558 1557 1556 1555 1555 1554 1553 1552 1551 1550 1549 1549 1548 1547 1547 1546 1545 1544 1544 1543 1543 1542 1541 1540 1540 1539 1538 1538 1537 1536 1535 1534 1533 1532 1531 1529 1528 1527 1526 1524 1523 1522 1520 1519 1518 1517 1515 1514 1514 1513 1512 1511 1510 1509 1508 1508 1506 1505 1504 1503 1502 1501 1500 1498 1497 1496 1494 1493 1492 1490 1489 1488 1487 1486 1485 1484 1483 1482 1480 1479 1478 1477 1476 1474 1473 1472 1471 1470 1469
1562 1562 1562 1562 1561 1561 1560 1560 1559 1559 1558 1558 1557 1557 1556 1555 1554 1554 1553 1552 1552 1551 1550 1549 1548 1547 1547 1546 1545 1544 1544 1543 1543 1542 1541 1540 1540 1539 1538 1538 1537 1536 1535 1534 1533 1533 1532 1531 1529 1528 1527 1526 1524 1523 1522 1521 1519 1518 1517 1516 1514 1513 1512 1511 1510 1509 1508 1507 1506 1505 1504 1503 1502 1501 1500 1498 1498 1496 1495 1494 1493 1491 1490 1488 1487 1486 1485 1484 1483 1482 1481 1480 1478 1478 1476 1475 1474 1473 1472 1470 1469 1468 1467
1561 1561 1560 1560 1560 1559 1559 1558 1558 1557 1557 1556 1556 1555 1554 1554 1553 1553 1552 1551 1550 1549 1548 1548 1547 1546 1545 1544 1544 1543 1543 1542 1541 1540 1540 1539 1538 1537 1537 1536 1535 1534 1533 1533 1532 1531 1530 1529 1528 1527 1526 1524 1523 1522 1521 1519 1518 1517 1516 1515 1514 1513 1512 1510 1509 1508 1506 1505 1504 1503 1503 1502 1500 1499 1498 1497 1495 1494 1493 1492 1491 1489 1488 1486 1485 1484 1483 1482 1481 1480 1479 1478 1477 1476 1474 1473 1472 1471 1470 1469 1467 1466 1464
1559 1559 1559 1558 1558 1558 1557 1557 1556 1556 1555 1555 1554 1553 1553 1552 1552 1551 1550 1549 1549 1548 1547 1546 1545 1544 1544 1543 1542 1542 1541 1540 1540 1539 1538 1538 1537 1536 1535 1534 1533 1533 1532 1531 1530 1530 1529 1528 1527 1526 1525 1523 1522 1521 1520 1518 1517 1516 1515 1514 1513 1512 1511 1510 1508 1507 1505 1503 1502 1501 1501 1500 1498 1497 1496 1494 1493 1492 1491 1490 1489 1487 1486 1484 1483 1482 1480 1479 1478 1478 1477 1476 1475 1474 1473 1471 1470 1469 1468 1467 1465 1463 1462
1558 1558 1557 1557 1557 1556 1556 1555 1555 1554 1554 1553 1553 1552 1552 1551 1550 1549 1549 1548 1547 1547 1546 1545 1544 1543 1542 1542 1541 1540 1539 1539 1538 1538 1537 1536 1535 1535 1534 1533 1532 1531 1530 1530 1529 1528 1528 1527 1526 1525 1523 1523 1521 1520 1518 1517 1516 1515 1514 1513 1512 1511 1510 1509 1507 1506 1504 1503 1501 1499 1498 1498 1497 1495 1494 1493 1491 1490 1489 1488 1487 1485 1484 1483 1481 1480 1478 1478 1477 1476 1476 1475 1473 1472 1471 1470 1468 1467 1466 1465 1463 1462 1460
1556 1556 1556 1555 1555 1554 1554 1554 1553 1553 1552 1552 1551 1551 1550 1549 1549 1548 1547 1547 1546 1545 1544 1544 1543 1542 1541 1540 1540 1539 1538 1538 1537 1536 1535 1535 1534 1533 1533 1532 1531 1530 1529 1528 1528 1527 1526 1525 1524 1523 1522 1521 1520 1519 1517 1516 1515 1514 1513 1512 1511 1510 1509 1508 1507 1505 1503 1502 1500 1498 1496 1495 1494 1493 1492 1491 1490 1488 1488 1486 1485 1484 1482 1481 1479 1478 1477 1476 1475 1475 1474 1473 1472 1471 1469 1468 1467 1465 1464 1462 1461 1459 1458
1554 1554 1554 1554 1553 1553 1553 1552 1552 1551 1551 1550 1549 1549 1548 1548 1547 1547 1546 1545 1544 1543 1543 1542 1542 1541 1540 1539 1538 1538 1537 1536 1535 1535 1534 1533 1533 1532 1531 1530 1529 1529 1528 1527 1526 1525 1524 1524 1523 1522 1521 1520 1518 1518 1516 1515 1514 1513 1512 1511 1510 1509 1508 1507 1505 1504 1502 1500 1498 1496 1494 1493 1492 1491 1490 1489 1488 1487 1486 1485 1483 1482 1480 1479 1478 1477 1475 1474 1474 1473 1473 1472 1470 1469 1468 1466 1465 1463 1462 1460 1458 1457 1455
1553 1553 1552 1552 1552 1551 1551 1551 1550 1550 1549 1548 1548 1548 1547 1546 1546 1545 1544 1544 1543 1542 1541 1541 1540 1539 1538 1538 1537 1536 1536 1535 1534 1533 1533 1532 1531 1531 1530 1529 1528 1527 1527 1526 1525 1524 1523 1522 1521 1520 1519 1518 1517 1516 1515 1514 1513 1511 1510 1509 1508 1508 1506 1505 1504 1502 1501 1499 1497 1495 1493 1491 1490 1489 1488 1487 1486 1485 1484 1483 1482 1480 1479 1477 1476 1475 1474 1473 1472 1472 1471 1470 1469 1468 1466 1465 1463 1461 1459 1458 1456 1454 1453
1551 1551 1551 1550 1550 1550 1549 1549 1548 1548 1548 1547 1546 1546 1545 1544 1544 1543 1543 1542 1542 1541 1540 1539 1538 1538 1537 1536 1535 1535 1534 1533 1533 1532 1531 1531 1530 1529 1528 1528 1527 1526 1525 1524 1523 1522 1521 1521 1520 1519 1518 1517 1516 1514 1513 1512 1511 1510 1509 1508 1507 1506 1504 1503 1502 1501 1499 1497 1495 1493 1491 1489 1488 1486 1485 1484 1483 1483 1482 1481 1480 1478 1477 1476 1474 1473 1472 1471 1470 1470 1469 1468 1467 1466 1465 1463 1461 1459 1457 1455 1453 1452 1451
1549 1549 1549 1549 1548 1548 1548 1547 1547 1546 1546 1545 1545 1544 1543 1543 1542 1542 1541 1541 1540 1540 1539 1538 1537 1536 1535 1535 1534 1533 1533 1532 1531 1530 1530 1529 1528 1528 1527 1526 1525 1524 1523 1523 1522 1521 1520 1519 1518 1517 1516 1515 1514 1513 1512 1511 1510 1509 1508 1507 1505 1504 1503 1502 1500 1499 1497 1495 1493 1492 1490 1488 1486 1485 1483 1482 1481 1480 1480 1479 1478 1477 1475 1474 1473 1472 1470 1469 1468 1468 1467 1466 1465 1464 1463 1461 1459 1457 1455 1453 1450 1448 1448
1548 1547 1547 1547 1547 1546 1546 1545 1545 1544 1544 1543 1543 1542 1542 1541 1540 1540 1539 1539 1538 1538 1538 1537 1536 1535 1534 1533 1533 1532 1531 1530 1530 1529 1528 1528 1527 1526 1525 1524 1524 1523 1522 1521 1520 1519 1518 1517 1516 1515 1514 1513 1513 1511 1510 1509 1508 1508 1507 1505 1504 1503 1501 1500 1498 1497 1495 1493 1492 1490 1488 1487 1485 1483 1482 1480 1479 1478 1478 1477 1476 1475 1474 1473 1471 1470 1469 1468 1467 1466 1465 1464 1463 1462 1461 1459 1457 1455 1453 1451 1448 1446 1446
1546 1546 1545 1545 1545 1545 1544 1544 1543 1543 1542 1542 1541 1541 1540 1539 1539 1538 1538 1537 1537 1536 1536 1535 1534 1533 1533 1532 1531 1530 1530 1529 1528 1527 1526 1525 1525 1524 1523 1523 1522 1521 1521 1519 1518 1518 1517 1516 1515 1514 1513 1512 1511 1510 1509 1508 1507 1506 1505 1503 1502 1501 1499 1498 1497 1495 1493 1492 1490 1489 1487 1485 1483 1482 1480 1479 1478 1477 1476 1475 1474 1473 1472 1471 1469 1468 1467 1466 1465 1464 1463 1462 1461 1460 1459 1457 1455 1453 1452 1449 1447 1445 1444
1544 1544 1543 1543 1543 1543 1543 1542 1542 1541 1541 1540 1540 1539 1538 1538 1537 1537 1536 1536 1535 1535 1534 1534 1533 1533 1532 1531 1530 1529 1528 1528 1527 1526 1525 1523 1523 1522 1522 1521 1520 1519 1519 1518 1517 1516 1515 1514 1513 1512 1511 1510 1509 1508 1508 1507 1506 1505 1503 1502 1500 1499 1498 1496 1495 1493 1492 1491 1489 1487 1486 1484 1482 1480 1479 1478 1477 1476 1474 1473 1472 1471 1470 1469 1468 1467 1466 1464 1463 1462 1461 1460 1459 1458 1457 1455 1454 1452 1450 1447 1444 1443 1442
1542 1542 1542 1542 1541 1541 1541 1540 1540 1539 1539 1538 1538 1538 1537 1536 1536 1535 1535 1534 1534 1533 1533 1533 1532 1531 1530 1529 1529 1528 1527 1526 1525 1524 1523 1523 1521 1520 1519 1519 1518 1517 1517 1516 1515 1514 1513 1512 1511 1510 1510 1509 1508 1507 1507 1506 1504 1503 1502 1500 1499 1497 1496 1494 1493 1491 1490 1489 1488 1486 1484 1483 1481 1479 1478 1477 1476 1475 1473 1472 1471 1469 1468 1467 1466 1465 1464 1463 1462 1460 1459 1458 1457 1456 1455 1453 1452 1450 1448 1445 1442 1440 1440
1540 1540 1540 1540 1539 1539 1539 1538 1538 1538 1538 1537 1537 1536 1535 1535 1534 1533 1533 1533 1532 1532 1531 1531 1530 1530 1529 1528 1528 1527 1526 1525 1524 1523 1522 1521 1520 1519 1517 1516 1515 1515 1513 1513 1513 1513 1512 1511 1510 1509 1508 1508 1507 1506 1505 1504 1503 1501 1500 1498 1497 1496 1494 1493 1491 1490 1488 1487 1486 1485 1483 1482 1480 1478 1477 1476 1474 1473 1472 1471 1470 1468 1467 1466 1464 1463 1462 1461 1460 1458 1457 1456 1455 1454 1453 1452 1450 1448 1446 1443 1441 1438 1436
1538 1538 1538 1538 1538 1537 1537 1537 1536 1536 1536 1535 1535 1534 1534 1533 1533 1532 1532 1531 1531 1530 1530 1529 1528 1528 1528 1527 1526 1526 1525 1524 1523 1523 1521 1520 1519 1518 1517 1515 1513 1513 1512 1511 1511 1511 1510 1509 1508 1508 1507 1506 1506 1505 1503 1502 1501 1499 1498 1497 1495 1494 1492 1491 1489 1488 1487 1486 1485 1483 1482 1480 1478 1477 1475 1474 1473 1472 1471 1470 1469 1468 1466 1465 1463 1462 1460 1459 1458 1457 1455 1454 1453 1452 1451 1449 1448 1446 1443 1441 1439 1437 1434
1536 1536 1536 1536 1535 1535 1535 1535 1535 1534 1534 1534 1533 1533 1532 1532 1531 1530 1530 1529 1529 1528 1528 1528 1527 1526 1526 1526 1525 1524 1524 1523 1522 1522 1521 1519 1518 1517 1517 1515 1513 1512 1511 1510 1509 1509 1508 1508 1507 1507 1506 1505 1504 1503 1502 1500 1499 1498 1496 1495 1494 1493 1491 1490 1488 1487 1485 1484 1483 1482 1480 1479 1477 1475 1474 1473 1472 1471 1470 1469 1468 1466 1465 1463 1462 1460 1459 1458 1456 1455 1454 1453 1451 1450 1448 1447 1445 1443 1441 1439 1437 1435 1433
1533 1533 1533 1533 1533 1533 1533 1533 1533 1533 1533 1532 1532 1531 1530 1530 1529 1528 1528 1528 1527 1527 1527 1526 1526 1525 1524 1524 1523 1523 1522 1522 1521 1520 1520 1519 1517 1515 1514 1514 1514 1513 1511 1509 1508 1507 1508 1508 1506 1505 1504 1504 1502 1501 1499 1498 1497 1496 1495 1494 1493 1491 1490 1488 1487 1486 1484 1483 1481 1480 1479 1477 1475 1474 1472 1471 1470 1469 1468 1468 1466 1465 1463 1462 1460 1459 1458 1456 1455 1454 1453 1451 1449 1448 1446 1444 1443 1441 1439 1437 1435 1433 1432
1531 1531 1531 1531 1531 1531 1531 1531 1531 1531 1530 1530 1530 1529 1528 1528 1528 1527 1527 1526 1526 1525 1525 1524 1524 1524 1523 1522 1522 1521 1521 1520 1520 1519 1518 1518 1517 1516 1513 1513 1513 1512 1511 1511 1509 1507 1507 1507 1506 1503 1502 1501 1500 1498 1497 1496 1495 1494 1493 1492 1491 1490 1488 1488 1486 1484 1483 1482 1480 1478 1477 1475 1474 1472 1471 1470 1469 1468 1467 1466 1465 1463 1462 1461 1459 1458 1456 1455 1454 1453 1451 1449 1448 1446 1444 1442 1441 1439 1437 1435 1433 1431 1429
1529 1529 1529 1529 1529 1529 1529 1529 1529 1529 1528 1528 1528 1528 1527 1526 1526 1525 1525 1525 1524 1524 1523 1523 1522 1522 1522 1521 1521 1520 1519 1519 1518 1518 1517 1516 1516 1516 1514 1513 1511 1510 1510 1509 1509 1508 1506 1504 1503 1501 1500 1499 1498 1497 1496 1495 1493 1492 1491 1491 1490 1489 1487 1486 1484 1483 1481 1480 1479 1478 1476 1474 1472 1471 1469 1468 1467 1466 1465 1464 1463 1462 1461 1460 1458 1457 1455 1454 1453 1451 1449 1448 1446 1444 1442 1440 1438 1436 1434 1432 1430 1429 1427
1527 1527 1527 1527 1527 1527 1527 1527 1527 1527 1527 1526 1526 1526 1525 1525 1524 1524 1523 1523 1523 1522 1522 1521 1521 1520 1521 1520 1519 1519 1518 1518 1517 1517 1516 1515 1514 1514 1513 1513 1512 1511 1509 1508 1507 1506 1505 1503 1501 1499 1498 1498 1498 1496 1494 1493 1492 1491 1490 1489 1488 1487 1486 1484 1483 1481 1480 1478 1477 1476 1474 1473 1471 1469 1468 1467 1466 1465 1464 1463 1462 1460 1459 1458 1456 1455 1453 1452 1451 1449 1448 1446 1444 1442 1440 1438 1436 1434 1432 1430 1428 1426 1424
1524 1524 1524 1525 1525 1525 1525 1525 1525 1525 1524 1524 1524 1524 1523 1523 1523 1522 1522 1522 1521 1521 1520 1520 1519 1519 1518 1519 1518 1518 1517 1516 1516 1515 1515 1514 1513 1512 1512 1512 1512 1511 1511 1509 1507 1504 1503 1503 1502 1500 1495 1495 1496 1495 1492 1491 1490 1490 1489 1488 1487 1485 1484 1483 1481 1480 1479 1477 1476 1474 1473 1472 1470 1469 1467 1466 1464 1463 1462 1461 1460 1459 1457 1456 1454 1453 1452 1450 1449 1448 1446 1444 1442 1440 1438 1436 1434 1432 1429 1427 1425 1423 1421
1522 1522 1522 1523 1523 1523 1523 1523 1523 1523 1523 1522 1522 1522 1522 1521 1521 1520 1520 1520 1520 1519 1519 1518 1518 1517 1517 1517 1517 1516 1515 1515 1514 1514 1513 1513 1512 1511 1510 1510 1509 1508 1508 1507 1506 1504 1502 1501 1502 1500 1495 1491 1491 1492 1492 1490 1488 1488 1487 1487 1485 1484 1483 1481 1480 1478 1477 1476 1475 1473 1472 1470 1469 1468 1466 1465 1463 1462 1460 1459 1458 1457 1456 1454 1453 1451 1449 1448 1447 1445 1444 1442 1440 1438 1436 1434 1432 1430 1427 1425 1423 1421 1418
1520 1520 1520 1520 1520 1520 1521 1521 1521 1521 1520 1520 1520 1520 1519 1519 1519 1519 1519 1518 1518 1518 1517 1517 1516 1516 1515 1515 1515 1514 1514 1513 1513 1513 1512 1511 1511 1511 1510 1509 1508 1507 1506 1505 1504 1504 1503 1502 1500 1498 1497 1492 1488 1486 1488 1488 1488 1486 1485 1484 1483 1483 1481 1480 1478 1477 1476 1475 1473 1472 1470 1469 1468 1467 1465 1463 1462 1461 1459 1458 1457 1455 1454 1453 1451 1449 1448 1446 1445 1443 1442 1440 1438 1437 1435 1433 1430 1428 1425 1423 1421 1419 1416
1517 1518 1518 1518 1518 1518 1518 1518 1518 1518 1518 1518 1518 1518 1518 1517 1517 1517 1517 1517 1516 1516 1515 1515 1515 1514 1514 1513 1513 1513 1513 1512 1511 1511 1511 1509 1509 1508 1508 1508 1507 1506 1505 1504 1503 1503 1502 1501 1500 1498 1497 1495 1490 1485 1483 1484 1485 1485 1484 1483 1482 1480 1479 1478 1477 1476 1474 1473 1472 1470 1469 1468 1466 1465 1464 1462 1461 1459 1458 1456 1455 1454 1452 1451 1449 1448 1446 1444 1443 1441 1439 1438 1436 1434 1433 1431 1428 1426 1423 1422 1419 1417 1414
1515 1515 1515 1515 1516 1516 1516 1516 1516 1516 1516 1516 1516 1516 1516 1516 1515 1515 1515 1515 1514 1514 1514 1513 1513 1513 1512 1512 1511 1511 1511 1510 1510 1509 1509 1508 1508 1507 1507 1506 1505 1504 1504 1503 1503 1502 1501 1500 1499 1498 1497 1495 1492 1489 1485 1482 1481 1482 1482 1481 1481 1479 1477 1476 1475 1475 1473 1472 1470 1468 1467 1466 1464 1463 1462 1460 1459 1458 1456 1454 1453 1452 1451 1449 1448 1446 1444 1443 1441 1439 1438 1436 1434 1432 1430 1428 1426 1424 1422 1420 1418 1415 1412